Flag for Saudi Arabia Weather past 2 weeks in Medina, Saudi Arabia

Now
84 °F

Sunny.


Feels Like: 82 °F
Forecast: 69 / 104 °F
Wind: No wind

Location: Madinah

Current Time: Sep 22, 2014 at 7:25:20 AM

Latest Report: Sep 22, 2014 at 7:00 AM


Visibility: 10 mi

Pressure: 29.89 "Hg

Humidity: 25%

Dew point: 45 °F

Location of MedinaLocation

Historic Weather in Medina — Graph

°F

Medina temperature yesterday

Maximum temperature yesterday: 106 °F (at 3:00 PM)
Minimum temperature yesterday: 88 °F (at 6:00 AM)
Average temperature yesterday: 97 °F

Past Weeks' High & Low Weather Summary

 TemperatureHumidityPressure
High108 °F (Sep 7, 2:00 PM)30% (Sep 15, 12:00 AM)29.98 "Hg (Sep 15, 12:00 AM)
Low79 °F (Sep 17, 7:00 AM)3% (Sep 10, 9:00 AM)29.77 "Hg (Sep 7, 2:00 PM)
Average97 °F10%29.89 "Hg
* Reported Sep 7 6:00 AM — Sep 22 6:00 AM, Medina, Weather by CustomWeather, © 2014

Note: Actual official high and low records may vary slightly from our data, if they occured in-between our weather recording intervals... More about our weather records

Advertising

Medina weather history for previous 24 hours

 ConditionsComfort  
Time TempWeatherWind HumidityBarometerVisibility
6:00 AM
Sep 22
84 °FClear.No wind27%29.89 "Hg10 mi
5:00 AM84 °FClear.2 mph27%29.89 "Hg10 mi
4:00 AM86 °FClear.5 mph27%29.86 "Hg10 mi
3:00 AM88 °FClear.2 mph25%29.86 "Hg10 mi
2:00 AM90 °FClear.2 mph26%29.86 "Hg10 mi
1:00 AM91 °FClear.No wind24%29.86 "Hg10 mi
12:00 AM91 °FClear.5 mph28%29.89 "Hg10 mi
11:00 PM
Sep 21
93 °FClear.9 mph26%29.89 "Hg10 mi
10:00 PM95 °FClear.9 mph25%29.89 "Hg10 mi
9:00 PM97 °FClear.12 mph19%29.86 "Hg10 mi
8:00 PM99 °FClear.14 mph15%29.86 "Hg10 mi
7:00 PM100 °FClear.16 mph11%29.83 "Hg10 mi
6:00 PM102 °FPassing clouds.14 mph9%29.80 "HgN/A
5:00 PM104 °FScattered clouds.12 mph9%29.80 "HgN/A
4:00 PM106 °FPassing clouds.6 mph7%29.80 "HgN/A
3:00 PM106 °FPassing clouds.8 mph7%29.80 "HgN/A
2:00 PM104 °FPassing clouds.13 mph7%29.83 "Hg5 mi
1:00 PM102 °FSunny.13 mph9%29.83 "Hg5 mi
12:00 PM100 °FSunny.10 mph10%29.86 "Hg4 mi
11:00 AM100 °FSunny.6 mph11%29.89 "Hg4 mi
10:00 AM97 °FClear.No wind12%29.89 "Hg4 mi
9:00 AM93 °FClear.5 mph14%29.89 "Hg5 mi
8:00 AM90 °FClear.No wind17%29.89 "Hg5 mi
Weather by CustomWeather, © 2014

See weather overviewHow to use our weather pages